TimeCET,TemperatureF,Dew PointF,Humidity,Sea Level PressureIn,VisibilityMPH,Wind Direction,Wind SpeedMPH,Gust SpeedMPH,PrecipitationIn,Events,Conditions,WindDirDegrees,DateUTC
12:55 AM,30.2,28.4,93,29.56,-9999.0,WSW,28.8,-,N/A,Fog,Light Freezing Fog,250,2013-01-14 23:55:00
1:00 AM,30,29,93,,0,WSW,28.8,,,Snow,Light Snow,250,2013-01-15 00:00:00
1:55 AM,24.8,23.0,93,29.53,-9999.0,WSW,29.9,-,N/A,Fog,Light Freezing Fog,250,2013-01-15 00:55:00
2:55 AM,23.0,23.0,100,29.56,-9999.0,WSW,28.8,-,N/A,Fog,Light Freezing Fog,250,2013-01-15 01:55:00
3:55 AM,24.8,23.0,93,29.53,-9999.0,WSW,25.3,-,N/A,Fog,Light Freezing Fog,250,2013-01-15 02:55:00
4:55 AM,24.8,21.2,86,29.53,-9999.0,WSW,26.5,-,N/A,Fog,Light Freezing Fog,250,2013-01-15 03:55:00
5:55 AM,23.0,21.2,93,29.53,-9999.0,WSW,26.5,-,N/A,Fog,Light Freezing Fog,250,2013-01-15 04:55:00
6:55 AM,23.0,23.0,100,29.53,0.0,West,25.3,-,N/A,Fog,Light Freezing Fog,260,2013-01-15 05:55:00
7:00 AM,23,23,99,,0,West,25.3,,,Fog,Heavy Fog,260,2013-01-15 06:00:00
7:55 AM,24.8,24.8,100,29.53,-9999.0,WSW,32.2,-,N/A,Fog,Light Freezing Fog,250,2013-01-15 06:55:00
8:55 AM,26.6,26.6,100,29.50,-9999.0,WSW,31.1,-,N/A,Fog,Light Freezing Fog,240,2013-01-15 07:55:00
9:55 AM,24.8,23.0,93,29.53,-9999.0,WSW,34.5,-,N/A,Fog,Light Freezing Fog,240,2013-01-15 08:55:00
10:55 AM,26.6,23.0,86,29.53,0.0,WSW,35.7,-,N/A,Fog,Light Freezing Fog,250,2013-01-15 09:55:00
11:55 AM,28.4,26.6,93,29.50,-9999.0,WSW,33.4,-,N/A,Fog,Light Freezing Fog,250,2013-01-15 10:55:00
12:55 PM,28.4,24.8,86,29.47,-9999.0,WSW,29.9,-,N/A,Fog,Light Freezing Fog,250,2013-01-15 11:55:00
1:00 PM,29,25,80,,0,WSW,29.9,,,Snow,Light Snow,250,2013-01-15 12:00:00
1:55 PM,28.4,24.8,86,29.44,-9999.0,WSW,28.8,-,N/A,Fog,Light Freezing Fog,250,2013-01-15 12:55:00
2:55 PM,28.4,24.8,86,29.44,-9999.0,WSW,31.1,-,N/A,Fog,Light Freezing Fog,250,2013-01-15 13:55:00
3:55 PM,28.4,24.8,86,29.44,-9999.0,WSW,28.8,-,N/A,Fog,Light Freezing Fog,250,2013-01-15 14:55:00
4:55 PM,28.4,24.8,86,29.42,-9999.0,WSW,27.6,-,N/A,Fog,Light Freezing Fog,250,2013-01-15 15:55:00
5:55 PM,24.8,23.0,93,29.44,-9999.0,WSW,27.6,-,N/A,Fog,Light Freezing Fog,250,2013-01-15 16:55:00
6:55 PM,23.0,21.2,93,29.42,0.0,WSW,32.2,-,N/A,Fog,Light Freezing Fog,250,2013-01-15 17:55:00
7:00 PM,24,21,83,,0,WSW,32.2,,,Fog,Heavy Fog,250,2013-01-15 18:00:00
7:55 PM,19.4,17.6,93,29.42,0.0,WSW,34.5,-,N/A,Fog,Light Freezing Fog,250,2013-01-15 18:55:00
8:55 PM,21.2,17.6,86,29.36,0.0,South,33.4,-,N/A,Fog,Light Freezing Fog,170,2013-01-15 19:55:00
9:55 PM,21.2,17.6,86,29.33,0.0,South,32.2,-,N/A,Fog,Light Freezing Fog,170,2013-01-15 20:55:00
10:55 PM,21.2,19.4,93,29.33,0.0,South,17.3,-,N/A,Fog,Light Freezing Fog,170,2013-01-15 21:55:00
11:55 PM,21.2,19.4,93,29.30,0.0,SSE,18.4,-,N/A,Fog,Light Freezing Fog,160,2013-01-15 22:55:00